Home   Weather   Zabrze   Past weeks

Flag for Poland Past Weather in Zabrze, Poland — Yesterday and Last 2 Weeks

Now
41 °F

Sunny.


Feels Like: 36 °F
Forecast: 39 / 48 °F
Wind: 7 mph from Southeast

Location: Katowice Airport

Current Time: Apr 25, 2017 at 6:59:05 am

Latest Report: Apr 25, 2017 at 6:30 am


Visibility: 10 mi

Pressure: 29.74 "Hg

Humidity: 76%

Dew Point: 34 °F

Location of ZabrzeLocation

Past Weather in Zabrze — Graph

°F

Zabrze Temperature Yesterday

Maximum temperature yesterday: 52 °F (at 5:00 pm)
Minimum temperature yesterday: 34 °F (at 4:00 am)
Average temperature yesterday: 42 °F

High & Low Weather Summary for the Past Weeks

 TemperatureHumidityPressure
High68 °F (Apr 10, 4:00 pm)100% (Apr 11, 2:00 am)30.39 "Hg (Apr 11, 2:00 am)
Low25 °F (Apr 21, 2:00 am)38% (Apr 10, 4:00 pm)29.68 "Hg (Apr 13, 5:30 am)
Average42 °F72%30.00 "Hg
* Reported Apr 10 5:00 am — Apr 25 5:30 am, Zabrze, Weather by CustomWeather, © 2017

Note: Actual official high and low records may vary slightly from our data, if they occured in-between our weather recording intervals... More about our weather records

Advertising

Zabrze Weather History for the Previous 24 Hours

Scroll right to see more
 ConditionsComfort  
Time TempWeatherWind HumidityBarometerVisibility
5:30 am
Tue, Apr 25
39 °FClear.8 mph75%29.74 "Hg10 mi
4:30 am39 °FClear.7 mph70%29.77 "Hg10 mi
4:00 am39 °FClear.6 mph70%29.80 "Hg10 mi
3:00 am41 °FClear.6 mph66%29.80 "Hg10 mi
2:30 am39 °FClear.6 mph70%29.83 "Hg10 mi
2:00 am39 °FClear.7 mph70%29.83 "Hg10 mi
1:30 am39 °FClear.7 mph70%29.83 "Hg10 mi
1:00 am43 °FClear.6 mph61%29.86 "Hg10 mi
12:30 am41 °FClear.6 mph66%29.86 "Hg10 mi
12:00 am43 °FClear.7 mph61%29.86 "Hg10 mi
11:30 pm
Mon, Apr 24
43 °FClear.8 mph61%29.89 "Hg10 mi
11:00 pm43 °FClear.8 mph61%29.89 "Hg10 mi
10:30 pm45 °FClear.7 mph57%29.89 "Hg10 mi
10:00 pm43 °FClear.7 mph61%29.89 "Hg10 mi
9:30 pm43 °FClear.7 mph61%29.89 "Hg10 mi
9:00 pm45 °FClear.7 mph57%29.92 "Hg10 mi
8:30 pm46 °FClear.6 mph53%29.92 "Hg10 mi
8:00 pm48 °FClear.9 mph50%29.92 "Hg10 mi
7:30 pm50 °FSunny.9 mph43%29.92 "Hg10 mi
7:00 pm50 °FSunny.13 mph43%29.92 "Hg10 mi
6:30 pm52 °FSunny.16 mph44%29.95 "Hg10 mi
6:00 pm52 °FSunny.14 mph41%29.95 "Hg10 mi
5:30 pm52 °FPassing clouds.14 mph41%29.95 "HgN/A
5:00 pm52 °FSunny.15 mph38%29.95 "Hg10 mi
4:30 pm50 °FPassing clouds.15 mph40%29.98 "HgN/A
4:00 pm50 °FPassing clouds.16 mph43%29.98 "HgN/A
3:30 pm50 °FPassing clouds.12 mph47%30.01 "HgN/A
3:00 pm48 °FPassing clouds.12 mph46%30.01 "HgN/A
2:30 pm50 °FPassing clouds.15 mph40%30.04 "HgN/A
2:00 pm48 °FScattered clouds.13 mph40%30.04 "HgN/A
1:30 pm46 °FScattered clouds.12 mph43%30.04 "HgN/A
1:00 pm46 °FScattered clouds.17 mph46%30.04 "HgN/A
12:30 pm46 °FScattered clouds.15 mph50%30.07 "HgN/A
12:00 pm45 °FScattered clouds.12 mph53%30.07 "HgN/A
11:30 am46 °FScattered clouds.14 mph53%30.07 "HgN/A
11:00 am43 °FScattered clouds.13 mph57%30.07 "HgN/A
10:30 am43 °FPartly sunny.14 mph61%30.07 "HgN/A
10:00 am41 °FBroken clouds.15 mph66%30.09 "HgN/A
9:30 am45 °FPartly sunny.12 mph66%30.09 "HgN/A
9:00 am39 °FPartly sunny.13 mph75%30.09 "HgN/A
8:30 am39 °FPartly sunny.10 mph81%30.09 "HgN/A
8:00 am39 °FPassing clouds.10 mph81%30.09 "HgN/A
7:30 am36 °FPartly sunny.8 mph93%30.07 "HgN/A
7:00 am36 °FBroken clouds.8 mph87%30.07 "HgN/A
6:30 am36 °FBroken clouds.8 mph87%30.07 "HgN/A
6:00 am34 °FBroken clouds.7 mph93%30.07 "HgN/A
Weather by CustomWeather, © 2017

See weather overviewHow to use our weather pages